Temperature
18 17 16 15 15 15 15 14 14 14 14 14 12 11 11 11 11 11 11 11 11 11 11 11 12 12 12 12 12 12 12 13 13 13 13 13 12 11 12 12 12 12 12
18 17 16 16 15 15 14 14 14 14 14 13 12 11 12 11 11 11 11 11 11 11 10 11 11 11 11 12 12 12 13 13 12 12 12 12 12 12 13 12 12 12 12
18 17 16 16 15 15 14 14 14 13 13 13 11 12 12 11 11 11 11 11 11 11 11 11 11 11 11 12 12 12 13 12 11 11 12 12 12 13 14 13 12 12 12
18 17 16 16 15 14 14 14 13 13 13 13 12 12 12 12 11 11 11 10 10 11 13 13 11 11 11 11 11 12 12 12 11 11 12 12 12 13 14 14 13 12 12
18 17 16 16 15 14 14 14 13 13 13 12 12 12 12 12 11 11 11 11 12 13 14 13 12 12 12 11 12 12 12 12 11 11 12 12 12 13 13 13 13 13 13
19 17 16 16 15 15 14 14 13 13 13 12 12 12 12 12 12 12 12 13 13 13 13 13 13 13 13 13 13 13 12 12 11 11 11 12 12 13 13 13 13 13 13
19 18 17 16 15 15 14 14 13 13 13 12 12 12 12 12 12 12 13 13 13 13 13 13 14 13 14 14 14 13 13 12 12 12 12 12 13 12 12 13 13 13 13
19 18 16 16 15 15 14 14 14 14 14 13 12 12 12 12 12 13 13 13 12 12 13 13 13 14 14 14 14 14 13 12 12 13 13 13 13 13 12 13 13 13 13
18 17 17 16 15 15 15 15 15 15 14 13 13 13 13 13 13 13 13 12 12 12 12 13 13 13 13 14 14 14 13 12 12 13 13 13 13 13 13 13 13 13 13
18 17 17 16 16 16 15 15 16 16 15 14 14 14 14 14 14 14 13 13 13 13 12 12 12 13 13 14 14 14 13 13 13 13 13 14 13 13 13 13 13 13 13
19 18 17 17 17 16 16 17 17 17 16 15 15 15 15 15 15 15 14 14 14 14 13 13 13 13 13 14 14 14 13 13 13 13 13 14 13 13 13 13 13 13 13
21 20 19 18 18 17 17 17 17 17 17 17 16 16 16 16 16 15 15 15 15 15 15 15 14 14 14 14 14 14 14 13 13 13 13 13 14 13 13 13 13 13 13
21 20 20 19 18 17 17 17 17 17 17 17 17 17 16 16 16 16 16 16 16 16 16 16 15 15 14 14 14 14 14 14 14 13 13 13 14 13 13 13 13 13 13
20 20 19 19 18 17 18 18 17 17 17 17 17 17 17 17 17 17 17 17 16 16 16 16 15 15 15 14 14 14 14 14 14 14 14 13 14 14 13 13 13 13 13
21 21 19 18 18 18 18 18 17 17 17 17 17 17 17 17 17 17 17 17 17 16 16 16 16 15 15 15 15 14 14 14 14 14 14 13 13 14 14 13 13 13 14
22 22 20 19 19 18 18 18 17 17 17 17 18 18 18 18 18 17 17 17 17 16 16 16 15 15 15 15 15 15 14 14 14 14 14 14 13 13 13 13 13 13 13
21 21 20 20 19 19 19 19 18 17 17 18 18 18 18 18 18 17 17 17 17 15 15 14 14 14 14 14 14 14 14 14 14 14 14 13 13 13 13 13 13 12 12
21 21 21 20 20 19 19 19 19 18 18 18 18 18 17 17 16 16 15 15 15 14 14 13 13 13 13 13 13 13 13 13 13 13 13 13 13 13 13 13 12 12 12
22 21 21 20 20 19 19 19 19 18 18 18 18 17 17 16 15 15 14 14 14 14 14 13 13 13 13 13 12 12 12 12 12 12 12 12 12 12 12 12 12 12 12
21 21 21 20 19 19 18 18 18 18 18 18 18 18 17 17 16 15 15 15 14 14 13 13 12 12 12 12 11 11 11 12 12 12 12 12 12 12 12 12 12 12 11
19 20 20 19 19 19 18 18 18 18 18 18 18 17 16 15 15 14 14 14 13 13 13 13 12 12 12 11 11 11 11 11 11 12 12 12 12 12 12 12 12 12 11
19 19 19 19 19 19 18 18 17 17 17 16 16 15 15 15 14 14 13 13 13 13 13 13 12 12 12 12 11 10 10 11 12 12 12 12 12 13 13 13 12 12 12
19 19 19 18 18 18 18 17 17 16 16 15 15 15 14 14 13 13 13 13 13 13 13 13 13 12 12 12 12 11 10 10 12 12 12 12 12 11 12 12 12 12 12
17 17 17 17 17 17 17 16 16 15 15 14 14 14 14 13 13 13 13 13 13 13 13 13 13 13 13 12 12 11 11 11 10 11 12 12 12 11 11 11 11 11 11
16 16 16 16 16 15 15 15 14 14 14 13 13 13 13 13 12 12 12 12 12 12 12 12 12 12 12 12 12 11 11 11 10 10 10 11 12 12 12 11 11 11 11
15 15 15 15 14 14 14 14 13 13 13 13 13 13 12 12 12 12 12 12 12 12 11 11 12 11 11 11 11 11 11 11 11 10 10 11 11 12 12 12 12 12 11
Wind_Speed
6 11 18 16 16 17 15 13 10 9 8 7 7 6 5 5 4 4 4 4 5 4 3 3 3 5 6 7 8 8 7 7 8 6 5 5 5 6 7 8 6 4 5
10 15 18 17 17 17 15 13 11 10 9 7 6 6 6 7 6 5 5 5 5 5 4 3 2 3 4 7 9 8 5 5 4 3 2 3 4 7 6 6 6 7 9
12 15 17 16 18 17 15 12 11 10 9 7 5 7 9 8 6 6 5 4 5 5 4 1 1 5 4 6 8 7 3 1 1 2 4 6 5 7 7 6 6 8 9
13 15 15 17 19 17 15 13 11 10 8 7 6 7 9 9 7 6 5 4 4 5 4 3 0 4 4 4 5 4 1 2 4 6 3 7 5 6 6 6 5 6 6
11 15 17 20 19 17 15 14 11 9 7 7 8 7 9 9 9 7 5 5 4 4 4 3 0 2 3 2 2 2 2 4 7 9 3 7 5 6 5 5 5 5 4
11 15 19 21 20 19 17 15 12 11 9 7 6 6 8 9 9 8 7 7 6 5 4 4 3 2 3 1 2 3 3 4 6 8 3 8 6 7 6 6 6 6 5
10 13 19 22 21 20 18 16 14 12 10 9 7 5 5 8 9 8 7 6 6 6 5 5 6 7 6 5 6 7 5 4 2 4 4 8 8 8 8 7 7 6 6
11 12 17 22 21 20 19 17 15 13 12 12 10 7 6 6 7 7 7 7 8 8 7 7 8 9 9 9 9 9 8 6 2 2 5 9 11 10 9 8 8 7 6
9 10 11 15 18 19 19 17 16 14 13 13 12 10 8 6 6 8 8 8 9 9 9 9 9 10 12 12 12 11 11 9 4 3 6 9 12 13 12 11 10 10 9
9 11 9 12 15 15 16 17 16 14 13 12 13 12 10 8 7 8 8 9 11 11 11 11 11 12 13 14 14 13 13 12 8 7 8 11 15 16 14 13 13 12 12
10 9 10 10 11 14 14 15 16 16 14 12 13 15 12 10 9 10 11 12 13 13 13 13 14 14 14 15 16 15 14 11 10 9 9 13 18 18 17 16 16 15 15
12 10 9 11 10 11 13 12 13 13 13 12 12 14 12 11 12 12 15 16 16 17 17 16 16 15 15 12 13 14 11 13 12 11 12 15 20 21 20 20 19 18 18
9 10 13 12 9 9 7 8 9 10 11 12 14 14 13 12 12 12 11 14 16 17 14 14 14 12 11 9 9 11 12 12 12 13 15 18 22 24 23 22 22 21 21
8 9 10 13 11 9 8 6 7 6 7 8 12 15 12 6 6 7 8 11 12 11 9 9 7 9 10 12 11 10 11 11 12 14 17 21 24 27 26 25 25 24 24
11 12 11 13 14 11 9 7 7 7 8 11 13 15 14 7 8 5 6 9 10 11 8 6 6 7 8 8 10 10 9 11 14 15 16 21 25 29 29 27 27 27 27
14 14 13 14 15 13 12 10 10 9 10 11 12 15 17 14 8 9 9 9 9 10 9 8 9 9 9 9 11 11 10 11 13 16 17 20 24 29 31 31 30 30 29
12 11 13 15 13 14 14 13 11 8 10 8 11 16 18 16 12 10 9 10 8 8 9 7 7 6 7 8 11 11 11 10 11 13 16 18 18 24 31 33 32 31 31
10 11 13 14 14 14 13 12 9 7 8 7 10 12 15 15 13 7 8 7 5 6 5 7 8 7 9 9 10 10 10 10 13 12 14 15 16 18 24 32 34 34 34
5 7 9 11 13 15 13 10 9 9 10 7 8 9 11 12 12 7 8 8 7 7 8 10 9 8 10 11 10 10 9 11 12 13 14 14 16 18 19 24 30 33 34
9 8 4 3 7 8 7 5 5 6 8 6 7 8 10 10 11 9 10 10 8 8 9 8 10 10 10 8 10 13 10 12 12 14 15 14 13 16 18 19 20 22 30
11 10 9 8 3 4 4 5 5 6 6 5 7 7 8 9 10 9 10 10 9 11 13 12 11 11 12 7 6 10 12 14 17 15 11 13 16 14 13 16 16 17 17
11 10 10 10 9 2 3 3 2 2 3 5 5 6 7 8 8 10 12 12 11 11 13 12 11 11 11 8 7 7 7 7 10 12 13 16 17 13 15 16 14 13 12
12 11 10 11 11 9 5 3 3 3 2 3 3 4 6 7 8 11 13 13 11 11 12 14 12 15 15 11 12 12 9 9 5 5 8 11 13 13 14 13 16 17 14
9 9 10 11 11 11 10 8 7 4 3 3 3 4 6 6 8 9 11 12 12 11 13 14 14 14 15 14 11 13 15 8 9 7 6 7 10 13 14 12 14 16 16
9 9 10 11 11 11 10 9 8 7 4 4 4 6 7 7 7 7 8 8 9 10 12 13 14 14 13 15 13 11 13 14 16 14 16 13 9 11 12 13 13 13 14
8 9 9 10 11 10 11 10 10 10 9 8 8 9 8 6 6 10 10 9 8 8 9 11 12 13 14 15 14 13 12 10 10 14 17 17 16 12 10 12 14 13 12
Wind_Direction
189 173 176 175 169 159 154 156 162 166 159 162 165 169 155 143 133 120 112 120 120 106 101 133 148 120 117 117 113 111 113 109 100 90 100 119 116 105 79 68 66 100 113
161 168 172 175 171 161 157 161 169 170 163 168 180 169 160 149 147 140 133 129 134 125 121 139 145 135 134 148 134 127 131 126 116 103 138 170 140 116 100 86 89 104 107
152 166 170 175 166 160 160 165 170 174 172 177 192 178 160 150 148 145 128 121 123 128 131 148 311 158 130 137 137 131 146 145 66 354 225 212 156 127 120 103 102 101 102
156 164 169 173 165 163 164 167 171 177 177 183 208 193 168 156 145 139 140 163 153 137 148 165 325 147 147 134 133 129 188 330 1 357 182 192 163 133 135 138 126 106 101
158 166 170 171 170 167 167 170 176 180 180 196 219 197 175 161 152 154 165 174 167 161 162 170 60 141 151 97 123 138 289 332 356 2 147 155 148 147 139 138 138 126 115
163 168 170 172 174 172 171 174 177 182 189 199 190 181 182 172 161 168 176 180 181 182 179 186 204 218 195 212 239 224 265 324 359 2 167 158 166 158 151 148 142 138 140
168 173 173 175 177 176 176 179 179 185 192 190 173 160 177 181 178 177 185 192 194 196 201 208 216 221 222 228 236 232 247 288 339 3 221 183 174 177 176 175 169 161 156
170 176 177 179 179 179 181 183 182 188 197 199 192 188 198 205 201 194 203 213 211 209 211 218 225 228 230 230 233 234 243 258 265 324 223 199 182 191 191 189 189 182 175
166 168 175 178 179 181 183 185 186 194 208 210 199 199 210 219 211 212 219 225 221 222 225 229 233 234 234 233 233 238 247 259 256 249 234 219 196 200 202 199 199 195 193
173 172 173 174 174 179 186 189 191 197 210 206 198 195 205 213 211 218 224 224 220 223 229 236 240 240 237 236 235 236 243 254 252 237 239 231 212 209 208 207 208 205 205
187 184 180 181 180 182 187 193 196 200 207 209 202 194 201 210 215 219 218 217 218 221 227 236 242 243 242 238 237 237 240 246 251 247 241 232 221 217 214 212 214 213 212
192 196 193 191 188 186 192 196 199 201 207 208 199 198 200 207 219 225 227 224 224 223 226 235 242 244 242 234 237 241 240 242 246 248 243 239 232 227 223 217 217 217 217
197 196 199 197 193 191 194 188 196 204 205 205 201 202 205 213 224 232 232 233 229 228 229 238 246 243 236 230 236 242 243 242 243 248 246 244 237 233 231 225 223 222 223
214 213 195 197 198 199 197 189 190 198 206 208 208 208 208 216 224 225 225 224 223 225 228 234 240 243 240 237 237 240 242 239 240 243 245 246 238 234 234 231 228 227 228
218 219 206 191 197 199 196 195 194 202 208 212 214 216 214 219 228 225 225 224 224 223 222 225 233 235 238 239 238 236 240 238 238 240 243 244 238 236 238 238 236 234 233
224 220 212 202 196 192 193 195 198 202 208 213 218 220 218 221 222 224 226 226 228 225 226 228 232 234 236 239 242 237 238 238 239 240 241 246 241 237 238 241 242 242 241
236 227 215 212 202 197 197 198 199 201 206 213 220 223 225 224 224 225 229 232 231 228 233 238 242 244 244 243 247 246 243 241 240 240 241 241 241 240 239 243 246 247 248
243 231 222 214 204 205 207 202 200 201 206 215 218 223 228 228 226 224 239 248 240 228 225 233 235 239 242 242 247 249 250 249 249 249 248 245 241 242 243 245 247 249 251
314 254 231 218 206 206 208 203 201 202 213 215 214 221 226 226 223 216 233 236 219 222 229 236 236 231 246 248 250 253 250 251 252 251 248 245 243 243 243 246 246 246 247
12 22 9 260 236 219 211 202 204 215 223 219 217 224 223 223 220 218 235 237 223 230 239 235 242 240 246 250 256 259 252 250 252 252 251 250 248 244 244 246 247 248 247
19 23 24 24 333 193 180 194 207 225 230 232 233 233 229 227 224 224 238 242 232 238 243 237 239 244 250 236 246 264 260 254 255 256 251 253 254 250 245 245 245 246 249
22 21 24 20 14 14 183 168 173 207 229 239 252 249 239 235 232 235 239 245 240 241 246 244 235 245 254 226 231 251 271 271 255 249 246 248 251 250 250 247 244 244 243
24 23 32 28 26 27 45 96 86 67 17 357 311 281 265 251 248 248 249 250 247 240 247 247 238 241 253 248 232 240 252 259 275 262 239 241 242 245 249 247 247 247 244
16 21 31 33 35 32 35 52 59 53 18 330 309 302 302 288 277 270 266 262 258 252 249 250 245 242 245 255 248 236 239 242 246 271 253 234 234 240 243 243 246 247 244
21 25 24 31 34 32 40 50 55 47 20 344 348 354 349 340 335 331 317 297 279 269 263 261 259 253 248 250 253 248 246 246 245 254 269 268 250 240 239 238 244 247 242
27 26 24 30 28 22 29 33 37 32 20 14 6 1 355 345 346 355 350 346 331 312 294 284 277 271 266 262 260 256 250 245 244 249 259 266 269 265 239 237 243 246 240
Height
1507 1508 1509 1511 1513 1514 1514 1515 1515 1515 1514 1513 1513 1514 1514 1513 1513 1513 1513 1514 1513 1513 1512 1513 1514 1515 1514 1514 1513 1511 1511 1510 1510 1509 1508 1507 1508 1508 1508 1508 1508 1507 1506
1505 1506 1508 1510 1512 1513 1513 1514 1514 1514 1513 1513 1514 1514 1514 1514 1513 1513 1513 1513 1513 1512 1511 1511 1513 1513 1513 1512 1511 1510 1510 1510 1509 1509 1508 1507 1507 1507 1507 1508 1508 1508 1507
1504 1505 1507 1509 1511 1512 1513 1514 1514 1513 1513 1513 1514 1514 1514 1514 1513 1512 1512 1512 1512 1511 1509 1510 1510 1511 1511 1511 1511 1510 1510 1510 1509 1509 1508 1507 1507 1507 1507 1507 1508 1508 1507
1504 1505 1506 1508 1510 1511 1512 1513 1513 1512 1512 1512 1513 1514 1514 1513 1513 1512 1511 1511 1510 1509 1508 1509 1509 1510 1510 1510 1510 1510 1510 1510 1509 1508 1508 1508 1508 1507 1507 1507 1507 1506 1506
1503 1504 1505 1507 1509 1510 1511 1512 1512 1511 1511 1512 1513 1514 1514 1513 1512 1511 1510 1509 1509 1508 1508 1508 1508 1509 1509 1509 1509 1509 1509 1509 1509 1508 1508 1508 1508 1508 1508 1507 1506 1506 1505
1502 1503 1504 1506 1507 1508 1509 1510 1510 1510 1511 1512 1513 1514 1514 1513 1511 1510 1509 1509 1508 1508 1508 1508 1508 1508 1508 1507 1507 1508 1508 1508 1508 1508 1508 1508 1508 1508 1508 1507 1506 1505 1504
1502 1502 1503 1505 1506 1507 1507 1508 1509 1509 1509 1510 1511 1512 1512 1512 1511 1510 1509 1509 1508 1508 1508 1507 1507 1507 1506 1506 1506 1506 1506 1506 1507 1507 1507 1507 1508 1507 1507 1506 1505 1504 1503
1501 1502 1502 1504 1505 1505 1506 1507 1508 1508 1508 1508 1509 1510 1510 1510 1510 1509 1509 1508 1508 1508 1507 1507 1506 1505 1505 1505 1504 1504 1504 1505 1505 1505 1505 1506 1506 1506 1505 1505 1504 1503 1503
1501 1502 1502 1502 1503 1504 1505 1505 1506 1506 1507 1507 1508 1508 1509 1509 1508 1508 1508 1507 1507 1507 1506 1506 1505 1504 1503 1503 1503 1503 1503 1503 1503 1503 1503 1504 1504 1504 1504 1503 1502 1502 1500
1501 1501 1501 1502 1502 1502 1502 1503 1504 1505 1505 1506 1506 1507 1507 1507 1507 1507 1506 1506 1505 1505 1504 1504 1503 1501 1501 1501 1501 1501 1501 1501 1501 1501 1501 1501 1501 1501 1501 1501 1501 1500 1499
1499 1500 1500 1500 1501 1501 1501 1502 1503 1503 1504 1504 1505 1505 1505 1505 1505 1505 1504 1504 1503 1503 1502 1501 1500 1499 1499 1498 1499 1499 1499 1499 1499 1499 1499 1499 1499 1499 1499 1498 1498 1498 1497
1497 1498 1499 1499 1499 1500 1500 1501 1502 1502 1503 1503 1503 1503 1503 1503 1503 1503 1503 1502 1502 1500 1499 1498 1497 1496 1496 1495 1495 1496 1496 1497 1497 1497 1497 1497 1496 1496 1496 1495 1495 1494 1494
1497 1496 1496 1497 1498 1498 1499 1500 1500 1501 1501 1501 1501 1501 1501 1501 1501 1501 1501 1500 1499 1497 1496 1496 1494 1493 1493 1493 1493 1493 1493 1493 1493 1493 1493 1493 1493 1493 1492 1491 1491 1491 1490
1494 1494 1494 1495 1496 1496 1497 1498 1499 1499 1499 1499 1499 1499 1499 1499 1499 1499 1498 1498 1496 1495 1494 1493 1492 1491 1490 1490 1489 1489 1489 1489 1489 1489 1489 1488 1488 1488 1487 1486 1486 1485 1485
1492 1492 1492 1492 1493 1494 1494 1495 1496 1496 1496 1497 1497 1497 1497 1497 1497 1497 1496 1495 1494 1493 1492 1492 1490 1489 1488 1487 1486 1485 1485 1484 1484 1483 1483 1483 1482 1482 1481 1481 1481 1480 1479
1489 1489 1490 1490 1490 1490 1490 1491 1492 1493 1494 1494 1495 1495 1495 1495 1495 1494 1493 1492 1491 1490 1490 1489 1487 1486 1484 1483 1482 1481 1480 1480 1479 1478 1477 1477 1476 1475 1474 1473 1473 1473 1473
1487 1487 1487 1487 1487 1487 1487 1488 1488 1490 1491 1492 1493 1493 1493 1492 1491 1490 1489 1488 1487 1488 1487 1486 1484 1482 1480 1479 1477 1476 1475 1474 1472 1471 1470 1469 1469 1468 1467 1466 1465 1466 1466
1484 1484 1484 1484 1484 1484 1485 1485 1486 1487 1488 1489 1490 1490 1490 1489 1488 1488 1487 1486 1485 1484 1483 1481 1479 1477 1475 1473 1471 1470 1469 1468 1466 1465 1464 1462 1461 1460 1459 1458 1458 1457 1457
1479 1478 1478 1479 1480 1481 1482 1483 1483 1485 1485 1486 1486 1486 1486 1486 1485 1485 1483 1482 1481 1479 1477 1475 1473 1471 1469 1467 1466 1464 1463 1461 1459 1457 1455 1453 1452 1451 1450 1449 1449 1448 1448
1475 1474 1474 1475 1476 1478 1480 1481 1481 1481 1482 1482 1482 1482 1482 1482 1481 1479 1478 1476 1475 1473 1471 1469 1467 1466 1463 1461 1460 1457 1454 1453 1451 1448 1445 1445 1443 1441 1440 1439 1438 1438 1437
1474 1473 1472 1472 1472 1473 1475 1477 1478 1478 1478 1479 1479 1479 1479 1478 1476 1474 1472 1470 1468 1466 1463 1461 1460 1458 1456 1455 1453 1448 1445 1444 1441 1437 1437 1436 1434 1432 1431 1429 1428 1427 1426
1476 1474 1473 1472 1471 1471 1472 1473 1475 1476 1476 1477 1477 1476 1475 1473 1471 1469 1466 1464 1462 1459 1456 1454 1453 1450 1448 1449 1446 1442 1437 1434 1430 1430 1428 1426 1424 1423 1422 1420 1418 1417 1415
1477 1475 1474 1473 1472 1471 1471 1471 1472 1472 1473 1473 1473 1471 1470 1468 1465 1463 1460 1458 1455 1453 1450 1449 1447 1444 1441 1440 1438 1436 1432 1425 1423 1420 1419 1418 1416 1415 1413 1412 1410 1408 1407
1479 1478 1477 1476 1474 1472 1471 1471 1471 1470 1470 1469 1468 1466 1464 1462 1460 1457 1455 1452 1449 1446 1444 1442 1440 1437 1434 1431 1429 1426 1423 1419 1417 1411 1409 1408 1406 1404 1403 1402 1401 1398 1397
1482 1481 1480 1478 1476 1474 1473 1472 1471 1470 1469 1467 1466 1464 1461 1459 1457 1454 1451 1448 1444 1441 1438 1436 1434 1431 1428 1424 1421 1418 1414 1411 1408 1405 1399 1396 1395 1392 1391 1391 1389 1387 1385
1483 1482 1481 1479 1478 1476 1475 1473 1471 1470 1468 1467 1464 1462 1460 1457 1455 1451 1448 1444 1441 1437 1434 1431 1428 1425 1422 1418 1414 1411 1407 1403 1399 1397 1391 1386 1384 1382 1381 1379 1376 1374 1373